SCP
0 0 0 0 0 0 0 0 0 0 0 0 0 0 0 0 0 0 0 0 0 0 0 0 0 0 0 0 0 0 0 0 0 0 0 0 0 0 0 0 0 0 0 0
0 0 0 0 0 0 0 0 0 0 0 0 0 0 0 0 0 0 0 0 0 0 0 0 0 0 0 0 0 0 0 0 0 0 0 0 0 0 0 0 0 0 0 0
0 0 0 0 0 0 0 0 0 0 0 0 0 0 0 0 0 0 0 0 0 0 0 0 0 0 0 0 0 0 0 0 0 0 0 0 0 0 0 0 0 0 0 0
0 0 0 0 0 0 0 0 0 0 0 0 0 0 0 0 0 0 0 0 0 0 0 0 0 0 0 0 0 0 0 0 0 0 0 0 0 0 0 0 0 0 0 0
0 0 0 0 0 0 0 0 0 0 0 0 0 0 0 0 0 0 0 0 0 0 0 0 0 0 0 0 0 0 0 0 0 0 0 0 0 0 0 0 0 0 0 0
0 0 0 0 0 0 0 0 0 0 0 0 0 0 0 0 0 0 0 0 0 0 0 0 0 0 0 0 0 0 0 0 0 0 0 0 0 0 0 0 0 0 0 0
0 0 0 0 0 0 0 0 0 0 0 0 0 0 0 0 0 0 0 0 0 0 0 0 0 0 0 0 0 0 0 0 0 0 0 0 0 0 0 0 0 0 0 0
0 0 0 0 0 0 0 0 0 0 0 0 0 0 0 0 0 0 0 0 0 0 0 0 0 0 0 0 0 0 0 0 0 0 0 0 0 0 0 0 0 0 0 0
0 0 0 0 0 0 0 0 0 0 0 0 0 0 0 0 0 0 0 0 0 0 0 0 0 0 0 0 0 0 0 0 0 0 0 0 0 0 0 0 0 0 0 0
0 0 0 0 0 0 0 0 0 0 0 0 0 0 0 0 0 0 0 0 0 0 0 0 0 0 0 0 0 0 0 0 0 0 0 0 0 0 0 0 0 0 0 0
0 0 0 0 0 0 0 0 0 0 0 0 0 0 0 0 0 0 0 0 0 0 0 0 0 0 0 0 0 0 0 0 0 0 0 0 0 0 0 0 0 0 0 0
0 0 0 0 0 0 0 0 0 0 0 0 0 0 0 0 0 0 0 0 0 0 0 0 0 0 0 0 0 0 0 0 0 0 0 0 0 0 0 0 0 0 0 0
0 0 0 0 0 0 0 0 0 0 0 0 0 0 0 0 0 0 0 0 0 0 0 0 0 0 0 0 0 0 0 0 0 0 0 0 0 0 0 0 0 0 0 0
0 0 0 0 0 0 0 0 0 0 0 0 0 0 0 0 0 0 0 0 0 0 0 0 0 0 0 0 0 0 0 0 0 0 0 0 0 0 0 0 0 0 0 0
0 0 0 0 0 0 0 0 0 0 0 0 0 0 0 0 0 0 0 0 0 0 0 0 0 0 0 0 0 0 0 0 0 0 0 0 0 0 0 0 0 0 0 0
0 0 0 0 0 0 0 0 0 0 0 0 0 0 0 0 0 0 0 0 0 0 0 0 0 0 0 0 0 0 0 0 0 0 0 0 0 0 0 0 0 0 0 0
0 0 0 0 0 0 0 0 0 0 0 0 0 0 0 0 0 0 0 0 0 0 0 0 0 0 0 0 0 0 0 0 0 0 0 0 0 0 0 0 0 0 0 0
0 0 0 0 0 0 0 0 0 0 0 0 0 0 0 0 0 0 0 0 0 0 0 0 0 0 0 0 0 0 0 0 0 0 0 0 0 0 0 0 0 0 0 0
0 0 0 0 0 0 0 0 0 0 0 0 0 0 0 0 0 0 0 0 0 0 0 0 0 0 0 0 0 0 0 0 0 0 0 0 0 0 0 0 0 0 0 0
0 0 0 0 0 0 0 0 0 0 0 0 0 0 0 0 0 0 0 0 0 0 0 0 0 0 0 0 0 0 0 0 0 0 0 0 0 0 0 0 0 0 0 0
0 0 0 0 0 0 0 0 0 0 0 0 0 0 0 0 0 0 0 0 0 0 0 0 0 0 0 0 0 0 0 0 0 0 0 0 0 0 0 0 0 0 0 0
0 0 0 0 0 0 0 0 0 0 0 0 0 0 0 0 0 0 0 0 0 0 0 0 0 0 0 0 0 0 0 0 0 0 0 0 0 0 0 0 0 0 0 0
0 0 0 0 0 0 0 0 0 0 0 0 0 0 0 0 0 0 0 0 0 0 0 0 0 0 0 0 0 0 0 0 0 0 0 0 0 0 0 0 0 0 0 0
0 0 0 0 0 0 0 0 0 0 0 0 0 0 0 0 0 0 0 0 0 0 0 0 0 0 0 0 0 0 0 0 0 0 0 0 0 0 0 0 0 0 0 0
0 0 0 0 0 0 0 0 0 0 0 0 0 0 0 0 0 0 0 0 0 0 0 0 0 0 0 0 0 0 0 0 0 0 0 0 0 0 0 0 0 0 0 0
0 0 0 0 0 0 0 0 0 0 0 0 0 0 0 0 0 0 0 0 0 0 0 0 0 0 0 0 0 0 0 0 0 0 0 0 0 0 0 0 0 0 0 0
Wind_Speed_500mb
5 7 15 25 22 7 7 9 10 8 9 2 14 13 24 27 5 18 22 22 22 24 25 24 25 24 23 22 22 22 18 17 11 10 9 11 10 12 6 0 6 12 18 23
8 13 26 8 9 12 4 2 14 10 9 11 15 15 21 8 3 13 30 27 27 30 26 30 34 34 37 38 38 37 37 31 27 22 18 17 13 14 11 6 7 11 13 16
16 12 9 12 9 11 8 14 7 13 9 6 8 11 14 7 20 27 28 29 28 29 30 30 31 36 38 41 42 41 41 41 38 32 25 18 14 14 8 2 6 8 9 12
11 11 9 7 11 15 10 15 16 13 7 9 6 10 10 10 8 11 29 30 30 29 29 29 30 31 33 37 36 36 37 37 38 33 29 26 25 20 20 16 15 13 12 10
13 8 9 9 15 12 13 5 10 4 5 3 7 4 12 9 6 10 20 28 29 26 25 28 27 28 30 29 31 33 33 33 34 29 29 27 28 30 27 23 19 18 18 16
12 2 8 13 5 12 8 8 11 8 5 3 19 16 7 9 4 10 22 32 34 31 29 26 24 24 27 26 26 29 30 37 33 31 29 27 25 22 16 17 17 20 20 21
4 10 5 6 6 4 7 11 4 7 4 12 2 3 14 2 5 12 36 47 38 30 27 26 24 22 22 21 22 21 21 21 18 14 12 11 13 12 15 17 20 18 19 24
11 8 17 11 15 14 14 16 11 14 6 9 2 12 9 2 4 17 56 53 43 36 30 25 22 17 15 15 16 12 8 9 6 2 2 4 5 8 11 14 17 22 25 28
10 11 2 7 7 11 9 8 7 10 6 5 8 7 1 5 9 23 39 45 44 39 34 27 21 15 12 10 8 4 1 3 5 5 4 3 4 3 5 9 13 18 20 23
8 5 4 3 7 6 5 11 7 5 3 7 8 11 10 13 15 14 23 46 43 37 34 30 26 23 19 17 13 8 7 5 7 6 4 4 5 8 12 15 20 24 27 30
11 10 5 2 11 16 5 4 5 6 9 10 5 13 8 13 18 26 38 50 46 43 36 32 31 29 25 22 17 12 9 8 6 3 2 6 9 13 18 23 29 32 35 39
11 10 8 16 4 3 4 13 13 12 13 6 5 24 6 6 23 39 42 47 43 38 33 33 35 36 35 28 21 15 14 11 8 5 6 11 16 22 27 32 37 41 43 45
14 4 2 7 5 3 7 6 5 7 6 12 11 15 6 10 15 27 31 38 39 38 37 40 44 47 42 34 27 22 20 17 12 9 11 18 26 32 37 42 47 50 53 55
25 10 14 25 11 7 8 10 10 9 7 15 30 17 5 8 12 14 26 26 30 37 44 48 50 51 46 39 31 25 24 23 19 14 19 27 33 39 44 48 51 54 56 58
6 13 8 7 9 10 12 12 15 14 10 16 9 15 13 18 22 41 30 32 40 41 41 46 55 56 49 42 34 28 30 30 28 26 29 34 37 42 48 52 57 59 60 64
1 5 5 5 9 11 15 18 18 24 20 18 27 39 23 16 26 23 29 28 26 28 31 33 42 48 46 40 34 32 33 35 38 39 39 42 45 49 53 58 63 64 67 73
9 9 6 21 3 8 18 20 27 20 19 16 27 33 4 10 18 24 28 24 26 23 19 22 30 40 40 39 38 41 42 46 49 47 48 52 54 55 57 62 64 66 74 77
11 10 4 5 4 15 6 6 8 16 15 14 2 7 12 14 12 14 18 21 22 21 22 22 22 27 33 40 51 54 57 58 58 56 56 57 56 59 63 65 66 73 75 79
3 10 6 6 9 16 15 11 14 15 18 16 19 8 15 12 10 18 22 25 24 25 25 24 21 27 37 45 52 62 66 67 66 63 61 59 57 60 63 63 69 71 75 81
4 5 9 7 8 18 10 5 15 16 11 20 25 18 18 18 4 11 27 36 31 27 25 29 36 41 46 49 50 51 56 62 64 62 59 56 58 59 59 64 69 70 75 80
7 2 20 16 13 16 12 10 16 12 14 29 31 23 24 12 31 34 22 32 40 33 37 38 39 44 45 50 52 54 57 62 61 58 56 56 58 59 61 66 65 68 73 78
15 16 9 5 3 18 24 15 16 11 30 29 28 23 28 36 37 35 38 38 37 42 46 44 45 46 47 51 57 60 62 59 57 54 55 55 55 56 60 64 65 66 69 75
6 14 12 23 14 1 53 21 56 26 21 25 20 32 35 42 45 40 48 50 50 54 50 50 48 50 52 56 63 64 60 57 54 55 53 54 54 54 55 59 60 64 65 71
9 11 7 8 8 14 35 43 32 40 46 41 41 43 42 49 54 53 55 58 59 56 58 51 51 58 61 59 64 63 59 57 56 55 53 54 54 54 53 55 57 61 63 69
11 20 11 5 7 10 30 42 46 49 50 53 55 56 53 53 60 61 61 62 58 57 54 51 56 59 61 62 63 60 56 56 56 56 54 54 54 54 55 55 56 57 58 62
22 14 9 11 25 23 26 41 39 49 53 52 54 52 53 49 56 56 62 58 51 50 53 54 54 58 62 62 59 56 56 58 57 55 53 53 54 53 53 57 59 49 53 55
Wind_Direction_500mb
131 115 210 203 202 169 161 187 213 250 257 234 244 245 268 275 203 168 167 137 111 97 83 83 78 75 73 74 83 84 89 92 112 123 128 133 165 156 172 147 286 275 274 276
58 220 231 139 179 216 216 279 261 287 273 174 271 269 266 354 84 241 166 140 126 115 103 89 86 84 81 79 77 77 77 78 85 92 101 115 141 162 167 188 244 273 274 272
175 213 169 167 170 173 206 212 224 226 323 291 331 288 249 76 83 114 141 143 133 127 116 105 97 88 85 82 78 77 74 73 69 71 80 87 102 120 141 260 293 293 282 277
231 253 197 169 213 145 215 202 213 227 141 231 141 276 289 170 115 99 140 148 144 139 127 116 108 104 93 85 80 77 76 75 71 67 71 78 82 83 68 50 32 14 2 336
237 188 169 181 218 165 235 128 174 205 178 66 286 320 256 116 210 173 163 154 152 146 138 126 116 104 94 90 83 79 73 71 67 60 56 55 56 58 58 55 50 43 31 21
221 231 185 201 109 162 132 87 46 51 62 291 222 191 256 186 168 139 173 170 167 161 150 136 120 111 105 95 86 77 66 57 51 44 41 37 46 51 49 45 34 35 35 33
213 226 211 158 116 98 115 97 328 333 344 236 15 140 247 17 24 190 175 176 174 169 160 152 144 135 120 109 93 84 68 49 53 42 30 26 26 19 13 14 13 12 16 15
174 276 172 191 193 191 181 161 163 217 212 256 269 241 256 305 346 169 175 171 173 178 179 173 165 149 133 127 123 113 76 59 72 75 99 76 38 10 4 5 3 357 5 2
164 273 147 172 156 152 198 187 171 107 61 22 233 295 290 44 59 127 153 167 180 188 188 189 185 184 186 174 162 166 213 186 171 166 131 80 53 33 2 355 349 346 348 341
178 292 269 182 115 43 180 162 74 8 239 245 262 274 232 220 197 166 171 192 191 193 200 203 208 209 207 208 214 226 220 179 157 148 121 56 25 12 2 354 342 343 338 335
150 155 264 151 210 175 129 212 102 156 162 197 240 261 230 211 172 186 201 200 201 205 209 209 212 218 221 220 228 231 215 194 181 159 27 5 351 343 338 332 329 327 328 327
193 140 173 213 291 317 274 208 169 208 238 250 154 258 15 80 179 189 203 208 215 221 220 221 226 230 231 230 232 229 226 222 220 249 295 313 321 323 324 324 325 325 326 326
185 184 39 326 296 37 231 221 155 101 61 203 221 256 38 33 151 194 206 213 222 227 232 239 234 234 233 233 231 232 231 227 235 264 305 318 318 316 317 318 319 320 320 319
180 173 179 232 209 149 176 197 187 160 190 244 242 269 194 232 217 215 223 229 234 252 253 251 242 239 237 235 230 233 236 237 245 271 294 300 304 309 313 314 315 314 312 312
190 224 164 211 192 175 197 191 171 196 195 203 187 235 246 212 220 235 229 254 255 253 255 256 248 240 231 228 231 239 243 245 250 263 278 287 296 304 306 307 308 308 307 308
305 212 113 275 219 202 239 236 201 222 241 245 243 262 259 256 238 246 245 236 226 240 251 248 242 234 231 234 243 250 252 252 253 259 268 279 288 295 299 303 306 305 306 308
145 132 134 239 75 54 279 214 212 216 213 219 235 246 160 204 201 226 233 224 230 236 247 250 242 235 240 245 255 253 257 253 253 256 264 273 283 291 297 302 302 303 305 307
134 142 168 153 67 246 252 103 135 212 238 212 296 223 209 242 260 258 242 235 238 244 248 248 246 245 249 253 253 250 252 252 252 255 263 270 283 293 297 298 300 303 306 309
85 152 147 214 204 310 279 185 174 170 257 192 207 208 223 226 253 258 241 242 252 253 250 243 242 262 269 259 253 252 253 253 252 255 261 270 283 289 292 296 301 305 308 311
129 27 184 121 200 224 259 70 126 100 285 211 182 180 180 155 162 249 259 249 237 221 237 258 273 274 269 267 269 264 256 250 249 254 265 277 285 288 293 301 305 308 311 312
102 125 219 214 242 285 226 172 130 113 242 163 181 188 189 188 232 275 270 234 228 243 268 277 271 280 274 268 266 257 248 245 250 261 271 279 285 290 298 302 304 310 312 313
158 161 195 110 180 271 161 118 169 193 157 168 191 219 234 263 263 259 265 233 237 269 270 268 266 272 268 264 256 247 245 250 258 268 275 280 282 288 296 301 307 310 312 312
226 198 184 189 205 181 176 205 215 212 216 213 248 287 272 261 248 261 263 251 266 272 263 261 263 265 262 260 250 247 251 257 268 276 278 280 283 293 298 302 307 310 314 314
248 168 211 105 197 210 206 219 230 236 246 249 266 277 271 263 255 269 264 262 263 263 265 257 264 261 254 255 250 251 256 266 272 277 280 281 287 295 299 304 309 313 316 314
195 151 154 277 242 194 230 232 249 250 255 262 267 272 275 271 265 272 270 268 265 268 260 262 267 263 253 251 251 253 262 271 275 279 280 283 291 297 302 307 311 315 315 316
175 196 166 209 209 215 238 262 260 253 262 270 275 278 275 273 278 277 278 270 270 268 263 267 266 253 249 250 252 259 268 273 276 278 280 286 293 299 305 308 310 312 312 313
Wind_Speed_850mb
5 7 15 25 22 7 7 9 10 8 9 2 14 13 24 27 5 18 22 22 22 24 25 24 25 24 23 22 22 22 18 17 11 10 9 11 10 12 6 0 6 12 18 23
8 13 26 8 9 12 4 2 14 10 9 11 15 15 21 8 3 13 30 27 27 30 26 30 34 34 37 38 38 37 37 31 27 22 18 17 13 14 11 6 7 11 13 16
16 12 9 12 9 11 8 14 7 13 9 6 8 11 14 7 20 27 28 29 28 29 30 30 31 36 38 41 42 41 41 41 38 32 25 18 14 14 8 2 6 8 9 12
11 11 9 7 11 15 10 15 16 13 7 9 6 10 10 10 8 11 29 30 30 29 29 29 30 31 33 37 36 36 37 37 38 33 29 26 25 20 20 16 15 13 12 10
13 8 9 9 15 12 13 5 10 4 5 3 7 4 12 9 6 10 20 28 29 26 25 28 27 28 30 29 31 33 33 33 34 29 29 27 28 30 27 23 19 18 18 16
12 2 8 13 5 12 8 8 11 8 5 3 19 16 7 9 4 10 22 32 34 31 29 26 24 24 27 26 26 29 30 37 33 31 29 27 25 22 16 17 17 20 20 21
4 10 5 6 6 4 7 11 4 7 4 12 2 3 14 2 5 12 36 47 38 30 27 26 24 22 22 21 22 21 21 21 18 14 12 11 13 12 15 17 20 18 19 24
11 8 17 11 15 14 14 16 11 14 6 9 2 12 9 2 4 17 56 53 43 36 30 25 22 17 15 15 16 12 8 9 6 2 2 4 5 8 11 14 17 22 25 28
10 11 2 7 7 11 9 8 7 10 6 5 8 7 1 5 9 23 39 45 44 39 34 27 21 15 12 10 8 4 1 3 5 5 4 3 4 3 5 9 13 18 20 23
8 5 4 3 7 6 5 11 7 5 3 7 8 11 10 13 15 14 23 46 43 37 34 30 26 23 19 17 13 8 7 5 7 6 4 4 5 8 12 15 20 24 27 30
11 10 5 2 11 16 5 4 5 6 9 10 5 13 8 13 18 26 38 50 46 43 36 32 31 29 25 22 17 12 9 8 6 3 2 6 9 13 18 23 29 32 35 39
11 10 8 16 4 3 4 13 13 12 13 6 5 24 6 6 23 39 42 47 43 38 33 33 35 36 35 28 21 15 14 11 8 5 6 11 16 22 27 32 37 41 43 45
14 4 2 7 5 3 7 6 5 7 6 12 11 15 6 10 15 27 31 38 39 38 37 40 44 47 42 34 27 22 20 17 12 9 11 18 26 32 37 42 47 50 53 55
25 10 14 25 11 7 8 10 10 9 7 15 30 17 5 8 12 14 26 26 30 37 44 48 50 51 46 39 31 25 24 23 19 14 19 27 33 39 44 48 51 54 56 58
6 13 8 7 9 10 12 12 15 14 10 16 9 15 13 18 22 41 30 32 40 41 41 46 55 56 49 42 34 28 30 30 28 26 29 34 37 42 48 52 57 59 60 64
1 5 5 5 9 11 15 18 18 24 20 18 27 39 23 16 26 23 29 28 26 28 31 33 42 48 46 40 34 32 33 35 38 39 39 42 45 49 53 58 63 64 67 73
9 9 6 21 3 8 18 20 27 20 19 16 27 33 4 10 18 24 28 24 26 23 19 22 30 40 40 39 38 41 42 46 49 47 48 52 54 55 57 62 64 66 74 77
11 10 4 5 4 15 6 6 8 16 15 14 2 7 12 14 12 14 18 21 22 21 22 22 22 27 33 40 51 54 57 58 58 56 56 57 56 59 63 65 66 73 75 79
3 10 6 6 9 16 15 11 14 15 18 16 19 8 15 12 10 18 22 25 24 25 25 24 21 27 37 45 52 62 66 67 66 63 61 59 57 60 63 63 69 71 75 81
4 5 9 7 8 18 10 5 15 16 11 20 25 18 18 18 4 11 27 36 31 27 25 29 36 41 46 49 50 51 56 62 64 62 59 56 58 59 59 64 69 70 75 80
7 2 20 16 13 16 12 10 16 12 14 29 31 23 24 12 31 34 22 32 40 33 37 38 39 44 45 50 52 54 57 62 61 58 56 56 58 59 61 66 65 68 73 78
15 16 9 5 3 18 24 15 16 11 30 29 28 23 28 36 37 35 38 38 37 42 46 44 45 46 47 51 57 60 62 59 57 54 55 55 55 56 60 64 65 66 69 75
6 14 12 23 14 1 53 21 56 26 21 25 20 32 35 42 45 40 48 50 50 54 50 50 48 50 52 56 63 64 60 57 54 55 53 54 54 54 55 59 60 64 65 71
9 11 7 8 8 14 35 43 32 40 46 41 41 43 42 49 54 53 55 58 59 56 58 51 51 58 61 59 64 63 59 57 56 55 53 54 54 54 53 55 57 61 63 69
11 20 11 5 7 10 30 42 46 49 50 53 55 56 53 53 60 61 61 62 58 57 54 51 56 59 61 62 63 60 56 56 56 56 54 54 54 54 55 55 56 57 58 62
22 14 9 11 25 23 26 41 39 49 53 52 54 52 53 49 56 56 62 58 51 50 53 54 54 58 62 62 59 56 56 58 57 55 53 53 54 53 53 57 59 49 53 55
Wind_Direction_850mb
131 115 210 203 202 169 161 187 213 250 257 234 244 245 268 275 203 168 167 137 111 97 83 83 78 75 73 74 83 84 89 92 112 123 128 133 165 156 172 147 286 275 274 276
58 220 231 139 179 216 216 279 261 287 273 174 271 269 266 354 84 241 166 140 126 115 103 89 86 84 81 79 77 77 77 78 85 92 101 115 141 162 167 188 244 273 274 272
175 213 169 167 170 173 206 212 224 226 323 291 331 288 249 76 83 114 141 143 133 127 116 105 97 88 85 82 78 77 74 73 69 71 80 87 102 120 141 260 293 293 282 277
231 253 197 169 213 145 215 202 213 227 141 231 141 276 289 170 115 99 140 148 144 139 127 116 108 104 93 85 80 77 76 75 71 67 71 78 82 83 68 50 32 14 2 336
237 188 169 181 218 165 235 128 174 205 178 66 286 320 256 116 210 173 163 154 152 146 138 126 116 104 94 90 83 79 73 71 67 60 56 55 56 58 58 55 50 43 31 21
221 231 185 201 109 162 132 87 46 51 62 291 222 191 256 186 168 139 173 170 167 161 150 136 120 111 105 95 86 77 66 57 51 44 41 37 46 51 49 45 34 35 35 33
213 226 211 158 116 98 115 97 328 333 344 236 15 140 247 17 24 190 175 176 174 169 160 152 144 135 120 109 93 84 68 49 53 42 30 26 26 19 13 14 13 12 16 15
174 276 172 191 193 191 181 161 163 217 212 256 269 241 256 305 346 169 175 171 173 178 179 173 165 149 133 127 123 113 76 59 72 75 99 76 38 10 4 5 3 357 5 2
164 273 147 172 156 152 198 187 171 107 61 22 233 295 290 44 59 127 153 167 180 188 188 189 185 184 186 174 162 166 213 186 171 166 131 80 53 33 2 355 349 346 348 341
178 292 269 182 115 43 180 162 74 8 239 245 262 274 232 220 197 166 171 192 191 193 200 203 208 209 207 208 214 226 220 179 157 148 121 56 25 12 2 354 342 343 338 335
150 155 264 151 210 175 129 212 102 156 162 197 240 261 230 211 172 186 201 200 201 205 209 209 212 218 221 220 228 231 215 194 181 159 27 5 351 343 338 332 329 327 328 327
193 140 173 213 291 317 274 208 169 208 238 250 154 258 15 80 179 189 203 208 215 221 220 221 226 230 231 230 232 229 226 222 220 249 295 313 321 323 324 324 325 325 326 326
185 184 39 326 296 37 231 221 155 101 61 203 221 256 38 33 151 194 206 213 222 227 232 239 234 234 233 233 231 232 231 227 235 264 305 318 318 316 317 318 319 320 320 319
180 173 179 232 209 149 176 197 187 160 190 244 242 269 194 232 217 215 223 229 234 252 253 251 242 239 237 235 230 233 236 237 245 271 294 300 304 309 313 314 315 314 312 312
190 224 164 211 192 175 197 191 171 196 195 203 187 235 246 212 220 235 229 254 255 253 255 256 248 240 231 228 231 239 243 245 250 263 278 287 296 304 306 307 308 308 307 308
305 212 113 275 219 202 239 236 201 222 241 245 243 262 259 256 238 246 245 236 226 240 251 248 242 234 231 234 243 250 252 252 253 259 268 279 288 295 299 303 306 305 306 308
145 132 134 239 75 54 279 214 212 216 213 219 235 246 160 204 201 226 233 224 230 236 247 250 242 235 240 245 255 253 257 253 253 256 264 273 283 291 297 302 302 303 305 307
134 142 168 153 67 246 252 103 135 212 238 212 296 223 209 242 260 258 242 235 238 244 248 248 246 245 249 253 253 250 252 252 252 255 263 270 283 293 297 298 300 303 306 309
85 152 147 214 204 310 279 185 174 170 257 192 207 208 223 226 253 258 241 242 252 253 250 243 242 262 269 259 253 252 253 253 252 255 261 270 283 289 292 296 301 305 308 311
129 27 184 121 200 224 259 70 126 100 285 211 182 180 180 155 162 249 259 249 237 221 237 258 273 274 269 267 269 264 256 250 249 254 265 277 285 288 293 301 305 308 311 312
102 125 219 214 242 285 226 172 130 113 242 163 181 188 189 188 232 275 270 234 228 243 268 277 271 280 274 268 266 257 248 245 250 261 271 279 285 290 298 302 304 310 312 313
158 161 195 110 180 271 161 118 169 193 157 168 191 219 234 263 263 259 265 233 237 269 270 268 266 272 268 264 256 247 245 250 258 268 275 280 282 288 296 301 307 310 312 312
226 198 184 189 205 181 176 205 215 212 216 213 248 287 272 261 248 261 263 251 266 272 263 261 263 265 262 260 250 247 251 257 268 276 278 280 283 293 298 302 307 310 314 314
248 168 211 105 197 210 206 219 230 236 246 249 266 277 271 263 255 269 264 262 263 263 265 257 264 261 254 255 250 251 256 266 272 277 280 281 287 295 299 304 309 313 316 314
195 151 154 277 242 194 230 232 249 250 255 262 267 272 275 271 265 272 270 268 265 268 260 262 267 263 253 251 251 253 262 271 275 279 280 283 291 297 302 307 311 315 315 316
175 196 166 209 209 215 238 262 260 253 262 270 275 278 275 273 278 277 278 270 270 268 263 267 266 253 249 250 252 259 268 273 276 278 280 286 293 299 305 308 310 312 312 313